This demonstration page uses our WeatherBlox Daily Observations layout. Learn more.

Hourly Observations for April 2, 2018

Temp ( °F °C ) Dew Point ( °F °C ) Humidity (%) Winds ( mph kmh ) Pressure ( in mb ) Visibility ( mi km ) Precip ( " mm )
12:15 am 00:15 Clear 21 -6.3 19 -7.4 92 92 SSE 8 13 30.15 1021 10 16.0934 0 0
12:35 am 00:35 Clear 20 -6.4 19 -7.3 93 93 SSE 9 15 30.15 1021 10 16.0934 0 0
12:55 am 00:55 Clear 22 -5.7 20 -6.8 92 92 SSE 13 20 30.12 1020 10 16.0934 0 0
1:15 am 01:15 Clear 21 -5.9 19 -7 92 92 SSE 14 22 30.12 1020 10 16.0934 0 0
1:35 am 01:35 Clear 21 -6 20 -6.9 93 93 S 10 17 30.12 1020 10 16.0934 0 0
1:55 am 01:55 Clear 21 -6.3 19 -7 95 95 S 9 15 30.12 1020 10 16.0934 0 0
2:15 am 02:15 Clear 21 -6.2 20 -6.8 96 96 S 9 15 30.12 1020 10 16.0934 0 0
2:35 am 02:35 Clear 19 -7 19 -7.5 96 96 S 9 15 30.12 1020 10 16.0934 0 0
2:55 am 02:55 Clear 20 -6.9 19 -7.3 97 97 SSE 8 13 30.09 1019 10 16.0934 0 0
3:15 am 03:15 Clear 18 -7.9 17 -8.4 96 96 SSE 9 15 30.09 1019 10 16.0934 0 0
3:35 am 03:35 Clear 17 -8.6 16 -8.9 98 98 SE 7 11 30.09 1019 10 16.0934 0 0
3:55 am 03:55 Clear 17 -8.5 17 -8.6 99 99 SE 8 13 30.09 1019 10 16.0934 0 0
4:15 am 04:15 Clear 17 -8.5 17 -8.6 99 99 SE 10 17 30.06 1018 10 16.0934 0 0
4:35 am 04:35 Partly Cloudy 16 -8.7 16 -9 98 98 SE 9 15 30.03 1017 10 16.0934 0 0
4:55 am 04:55 Mostly Cloudy 17 -8.4 17 -8.6 98 98 SSE 7 11 30.03 1017 10 16.0934 0 0
5:15 am 05:15 Cloudy 17 -8.5 16 -8.7 98 98 SSE 8 13 30 1016 10 16.0934 0 0
5:35 am 05:35 Cloudy 19 -7.2 19 -7.3 99 99 S 9 15 29.97 1015 10 16.0934 0 0
5:55 am 05:55 Cloudy 21 -6.2 21 -6.2 100 100 S 9 15 29.97 1015 10 16.0934 0 0
6:15 am 06:15 Cloudy 21 -6 21 -6 100 100 S 10 17 29.97 1015 10 16.0934 0 0
6:35 am 06:35 Cloudy 22 -5.7 22 -5.7 100 100 S 10 17 29.97 1015 10 16.0934 0 0
6:55 am 06:55 Cloudy 22 -5.8 22 -5.8 100 100 SSE 13 20 29.97 1015 10 16.0934 0 0
7:15 am 07:15 Cloudy 22 -5.7 22 -5.7 100 100 SSE 8 13 29.97 1015 7 11.26538 0 0
7:35 am 07:35 Cloudy 22 -5.7 22 -5.7 100 100 SSE 12 19 29.94 1014 10 16.0934 0 0
7:55 am 07:55 Cloudy 22 -5.8 21 -6 99 99 SSE 10 17 29.94 1014 10 16.0934 0 0
8:15 am 08:15 Mostly Cloudy 21 -6 21 -6.1 99 99 SSE 14 22 29.94 1014 10 16.0934 0 0
8:35 am 08:35 Partly Cloudy 22 -5.6 22 -5.6 100 100 SSE 14 22 29.88 1012 10 16.0934 0 0
8:55 am 08:55 Partly Cloudy 22 -5.4 22 -5.4 100 100 SSE 16 26 29.88 1012 10 16.0934 0 0
9:15 am 09:15 Sunny 24 -4.6 24 -4.7 99 99 S 22 35 29.85 1011 10 16.0934 0 0
9:35 am 09:35 Sunny 25 -4.1 24 -4.6 96 96 S 25 41 29.85 1011 10 16.0934 0 0
9:55 am 09:55 Sunny 26 -3.4 24 -4.5 92 92 S 22 35 29.83 1010 10 16.0934 0 0
10:15 am 10:15 Partly Cloudy 27 -2.6 25 -3.7 92 92 S 22 35 29.8 1009 10 16.0934 0 0
10:35 am 10:35 Cloudy 29 -1.5 27 -2.6 92 92 S 21 33 29.8 1009 10 16.0934 0 0
10:55 am 10:55 Cloudy 29 -1.5 28 -2.5 93 93 S 24 39 29.8 1009 10 16.0934 0 0
11:15 am 11:15 Cloudy 30 -1.2 28 -2.3 92 92 S 22 35 29.77 1008 10 16.0934 0 0
11:35 am 11:35 Cloudy 30 -0.9 28 -2.1 92 92 S 18 30 29.77 1008 10 16.0934 0 0
11:55 am 11:55 Mostly Cloudy 32 0 29 -1.7 88 88 S 17 28 29.74 1007 10 16.0934 0 0
12:15 pm 12:15 Partly Cloudy 33 0.7 29 -1.7 84 84 S 17 28 29.74 1007 10 16.0934 0 0
12:35 pm 12:35 Partly Cloudy 33 0.8 29 -1.8 83 83 S 15 24 29.74 1007 10 16.0934 0 0
12:55 pm 12:55 Sunny 34 1.1 29 -1.7 82 82 S 17 28 29.71 1006 10 16.0934 0 0
1:15 pm 13:15 Sunny 36 2.1 30 -1.1 80 80 SSE 15 24 29.71 1006 10 16.0934 0 0
1:35 pm 13:35 Sunny 37 2.6 30 -1 77 77 S 16 26 29.65 1004 10 16.0934 0 0
1:55 pm 13:55 Sunny 38 3.4 30 -1 73 73 S 16 26 29.65 1004 10 16.0934 0 0
2:15 pm 14:15 Sunny 40 4.2 32 -0.2 73 73 SSE 12 19 29.62 1003 10 16.0934 0 0
2:35 pm 14:35 Sunny 41 5.1 32 0 70 70 SSE 13 20 29.59 1002 10 16.0934 0 0
2:55 pm 14:55 Sunny 42 5.5 32 0.2 69 69 SSE 13 20 29.59 1002 10 16.0934 0 0
3:15 pm 15:15 Sunny 44 6.5 33 0.5 66 66 SSE 14 22 29.59 1002 10 16.0934 0 0
3:35 pm 15:35 Sunny 45 7.4 34 1.1 65 65 S 12 19 29.56 1001 10 16.0934 0 0
3:55 pm 15:55 Sunny 47 8.5 36 2.3 65 65 S 14 22 29.53 1000 10 16.0934 0 0
4:15 pm 16:15 Sunny 48 9 34 1.3 59 59 S 14 22 29.5 999 10 16.0934 0 0
4:35 pm 16:35 Sunny 49 9.6 35 1.6 58 58 SSE 14 22 29.5 999 10 16.0934 0 0
4:55 pm 16:55 Sunny 50 10 34 0.9 54 54 SSE 12 19 29.5 999 10 16.0934 0 0
5:15 pm 17:15 Sunny 51 10.6 34 1 52 52 SSE 13 20 29.5 999 10 16.0934 0 0
5:35 pm 17:35 Sunny 51 10.7 33 0.7 50 50 SSE 14 22 29.47 998 10 16.0934 0 0
5:55 pm 17:55 Sunny 51 10.3 35 1.9 56 56 SSE 13 20 29.47 998 10 16.0934 0 0
6:15 pm 18:15 Sunny 51 10.8 37 2.5 57 57 SSE 15 24 29.47 998 10 16.0934 0 0
6:35 pm 18:35 Sunny 50 10.2 37 2.6 60 60 SE 12 19 29.47 998 10 16.0934 0 0
6:55 pm 18:55 Sunny 50 10.1 35 1.9 57 57 SE 10 17 29.47 998 10 16.0934 0 0
7:15 pm 19:15 Sunny 48 9.1 35 1.9 61 61 SE 12 19 29.47 998 10 16.0934 0 0
7:35 pm 19:35 Sunny 46 7.6 36 2 68 68 ESE 9 15 29.47 998 10 16.0934 0 0
7:55 pm 19:55 Sunny 44 6.6 36 2.3 74 74 ESE 10 17 29.5 999 10 16.0934 0 0
8:15 pm 20:15 Clear 42 5.7 35 1.9 77 77 ESE 9 15 29.5 999 10 16.0934 0 0
8:35 pm 20:35 Clear 42 5.8 35 1.6 75 75 E 10 17 29.5 999 10 16.0934 0 0
8:55 pm 20:55 Clear 41 4.8 34 1.3 78 78 E 12 19 29.5 999 10 16.0934 0 0
9:15 pm 21:15 Clear 39 3.7 34 1.3 85 85 ENE 10 17 29.56 1001 10 16.0934 0 0
9:35 pm 21:35 Clear 37 3 35 1.5 90 90 ENE 15 24 29.59 1002 10 16.0934 0 0
9:55 pm 21:55 Clear 36 2 34 1 93 93 ENE 18 30 29.59 1002 10 16.0934 0 0
10:15 pm 22:15 Partly Cloudy with Mist and Fog 33 0.5 32 0.1 97 97 ENE 17 28 29.62 1003 5 8.0467 0 0
10:35 pm 22:35 Cloudy with Mist and Fog 32 0.1 32 0 99 99 ENE 18 30 29.65 1004 4 6.43736 0 0
10:55 pm 22:55 Cloudy with Mist and Fog 32 0 32 0 100 100 E 18 30 29.65 1004 2 3.21868 0 0
11:15 pm 23:15 Cloudy with Mist and Fog 32 0 32 0 100 100 E 18 30 29.65 1004 1.5 2.41401 0 0
11:35 pm 23:35 Cloudy with Mist and Fog 32 0 32 0 100 100 ENE 22 35 29.62 1003 0.75 1.207005 0 0
11:55 pm 23:55 Cloudy with Fog 32 0 32 0 100 100 E 18 30 29.65 1004 0.5 0.80467 0 0

Powered by AerisWeather